Tracking 31013 objects as of 10-Jul-2025
HD Live streaming from Space Station
objects crossing your sky now

SL-16 DEB

Track SL-16 DEB now!
10-day predictions


NORAD ID: 22336
Int'l Code: 1992-093Z
Perigee: 832.9 km
Apogee: 1,001.5 km
Inclination: 71.1 °
Period: 103.2 minutes
Semi major axis: 7288 km
RCS: 0.2247 m2 (medium)
Launch date: December 25, 1992
Source: Commonwealth of Independent States (former USSR) (CIS)
Launch site: TYURATAM MISSILE AND SPACE COMPLEX (TTMTR)

Note: This is SATELLITE DEBRIS
Your satellite tracking list
Your tracking list is empty




NASA's NSSDC Master Catalog

Two Line Element Set (TLE):
1 22336U 92093Z   25191.07423056  .00000231  00000-0  19202-3 0  9997
2 22336  71.1309 190.5375 0115657 164.7897 195.6743 13.95314249650104
Source of the keplerian elements: AFSPC